Location: Cazarilh
(42.9578°N, 0.5819°E)
Time: 05:44:54
(UTC+00:00)

Cosmos 332 Rocket - Pass Details

Date: 11 December 2019
Orbit: 683 x 703 km, 74.0° (Epoch: 23 January)

Event Time Altitude Azimuth Distance (km) Brightness Sun altitude
Rises 06:24:51 0° 207° (SSW) 3,077 7.1 -9.6°
Reaches altitude 10° 06:27:11 10° 210° (SSW) 2,164 6.3 -9.2°
Maximum altitude 06:32:02 64° 292° (WNW) 778 3.8 -8.3°
Drops below altitude 10° 06:36:55 10° 14° (NNE) 2,175 6.3 -7.5°
Sets 06:39:16 0° 18° (NNE) 3,095 7.1 -7.1°
